• In Romania
  • List of Countries
  • For 7 days
  • Water Temperature
  • Satellite Maps
  • Weather Map
  • Weather Widgets
  • user-avatar
    Login

    Hourly Weather La Rioja

    Today, 23 June, Friday

    Time Temperature Precipitation Wind Pressure Humidity
    00:00 +15°C° 0 mm 1 mps 708 mmHg 56%
    01:00 +14°C° 0 mm 1 mps 708 mmHg 56%
    02:00 +14°C° 0 mm 1 mps 708 mmHg 57%
    03:00 +14°C° 0 mm 1 mps 708 mmHg 57%
    04:00 +13°C° 0 mm 1 mps 708 mmHg 57%
    05:00 +13°C° 0 mm 1 mps 708 mmHg 57%
    06:00 +13°C° 0 mm 1 mps 708 mmHg 57%
    07:00 +13°C° 0 mm 1 mps 709 mmHg 58%
    08:00 +14°C° 0 mm 1 mps 709 mmHg 55%
    09:00 +18°C° 0 mm 1 mps 710 mmHg 49%
    10:00 +20°C° 0 mm 2 mps 710 mmHg 42%
    11:00 +23°C° 0 mm 2 mps 711 mmHg 36%
    12:00 +24°C° 0 mm 2 mps 711 mmHg 35%
    13:00 +25°C° 0 mm 3 mps 711 mmHg 34%
    14:00 +26°C° 0 mm 3 mps 711 mmHg 32%
    15:00 +24°C° 0 mm 2 mps 711 mmHg 36%
    16:00 +23°C° 0 mm 2 mps 711 mmHg 40%
    17:00 +22°C° 0 mm 1 mps 711 mmHg 44%
    18:00 +20°C° 0 mm 1 mps 711 mmHg 51%
    19:00 +19°C° 0 mm 1 mps 711 mmHg 58%
    20:00 +16°C° 0 mm 1 mps 712 mmHg 65%
    21:00 +16°C° 0 mm 1 mps 712 mmHg 66%
    22:00 +15°C° 0 mm 1 mps 712 mmHg 67%
    23:00 +15°C° 0 mm 1 mps 713 mmHg 68%

    Tomorrow, 24 June, Saturday

    Time Temperature Precipitation Wind Pressure Humidity
    00:00 +15°C° 0 mm 2 mps 712 mmHg 68%
    01:00 +14°C° 0 mm 2 mps 712 mmHg 68%
    02:00 +14°C° 0 mm 2 mps 712 mmHg 68%
    03:00 +14°C° 0 mm 2 mps 712 mmHg 69%
    04:00 +14°C° 0 mm 2 mps 712 mmHg 70%
    05:00 +13°C° 0 mm 2 mps 712 mmHg 71%
    06:00 +13°C° 0 mm 2 mps 712 mmHg 71%
    07:00 +13°C° 0 mm 2 mps 712 mmHg 71%
    08:00 +13°C° 0 mm 2 mps 712 mmHg 71%
    09:00 +16°C° 0 mm 2 mps 712 mmHg 64%
    10:00 +18°C° 0 mm 2 mps 712 mmHg 57%
    11:00 +20°C° 0 mm 2 mps 713 mmHg 50%
    12:00 +21°C° 0 mm 2 mps 712 mmHg 47%
    13:00 +23°C° 0 mm 2 mps 711 mmHg 45%
    14:00 +24°C° 0 mm 3 mps 710 mmHg 42%
    15:00 +24°C° 0 mm 2 mps 710 mmHg 46%
    16:00 +23°C° 0 mm 2 mps 709 mmHg 49%
    17:00 +21°C° 0 mm 2 mps 709 mmHg 52%
    18:00 +20°C° 0 mm 2 mps 709 mmHg 56%
    19:00 +19°C° 0 mm 2 mps 709 mmHg 59%
    20:00 +18°C° 0 mm 2 mps 709 mmHg 62%
    21:00 +17°C° 0 mm 2 mps 709 mmHg 63%
    22:00 +17°C° 0 mm 2 mps 709 mmHg 65%
    23:00 +17°C° 0 mm 2 mps 709 mmHg 66%

    Day after tomorrow, 25 June, Sunday

    Time Temperature Precipitation Wind Pressure Humidity
    00:00 +16°C° 0 mm 2 mps 709 mmHg 67%
    01:00 +16°C° 0 mm 1 mps 709 mmHg 67%
    02:00 +16°C° 0 mm 1 mps 708 mmHg 67%
    03:00 +16°C° 0 mm 2 mps 708 mmHg 67%
    04:00 +15°C° 0 mm 2 mps 708 mmHg 67%
    05:00 +15°C° 0 mm 2 mps 707 mmHg 66%
    06:00 +15°C° 0 mm 2 mps 708 mmHg 66%
    07:00 +15°C° 0 mm 2 mps 708 mmHg 65%
    08:00 +15°C° 0 mm 2 mps 708 mmHg 64%
    09:00 +18°C° 0 mm 2 mps 709 mmHg 58%
    10:00 +21°C° 0 mm 2 mps 709 mmHg 51%
    11:00 +25°C° 0 mm 2 mps 710 mmHg 45%
    12:00 +26°C° 0 mm 2 mps 709 mmHg 43%
    13:00 +27°C° 0 mm 2 mps 708 mmHg 41%
    14:00 +28°C° 0 mm 2 mps 707 mmHg 39%
    15:00 +27°C° 0 mm 2 mps 707 mmHg 43%
    16:00 +26°C° 0 mm 2 mps 707 mmHg 47%
    17:00 +24°C° 0 mm 1 mps 707 mmHg 52%
    18:00 +23°C° 0 mm 1 mps 707 mmHg 56%
    19:00 +22°C° 0 mm 1 mps 707 mmHg 59%
    20:00 +21°C° 0 mm 1 mps 708 mmHg 63%
    21:00 +20°C° 0 mm 1 mps 708 mmHg 63%
    22:00 +20°C° 0 mm 1 mps 708 mmHg 64%
    23:00 +20°C° 0 mm 1 mps 708 mmHg 64%

    26 June, Monday

    Time Temperature Precipitation Wind Pressure Humidity
    00:00 +18°C° 0 mm 2 mps 708 mmHg 64%
    01:00 +18°C° 0 mm 2 mps 708 mmHg 63%
    02:00 +18°C° 0 mm 2 mps 707 mmHg 63%
    03:00 +17°C° 0 mm 2 mps 707 mmHg 64%
    04:00 +17°C° 0 mm 2 mps 707 mmHg 64%
    05:00 +17°C° 0 mm 3 mps 707 mmHg 64%
    06:00 +17°C° 0 mm 3 mps 708 mmHg 66%
    07:00 +17°C° 0 mm 3 mps 708 mmHg 68%
    08:00 +17°C° 0 mm 3 mps 708 mmHg 71%
    09:00 +19°C° 0 mm 3 mps 709 mmHg 66%
    10:00 +21°C° 0 mm 4 mps 709 mmHg 61%
    11:00 +23°C° 0 mm 5 mps 709 mmHg 56%
    12:00 +25°C° 0 mm 5 mps 708 mmHg 53%
    13:00 +26°C° 0 mm 6 mps 708 mmHg 51%
    14:00 +26°C° 0 mm 6 mps 707 mmHg 49%
    15:00 +24°C° 0 mm 6 mps 707 mmHg 52%
    16:00 +23°C° 0 mm 6 mps 707 mmHg 56%
    17:00 +22°C° 0 mm 6 mps 707 mmHg 60%
    18:00 +21°C° 0.1 mm 6 mps 708 mmHg 64%
    19:00 +20°C° 0.1 mm 5 mps 708 mmHg 67%
    20:00 +19°C° 0.1 mm 4 mps 709 mmHg 71%
    21:00 +18°C° 0.1 mm 4 mps 709 mmHg 73%
    22:00 +18°C° 0.1 mm 3 mps 710 mmHg 75%
    23:00 +17°C° 0.1 mm 2 mps 710 mmHg 77%

    27 June, Tuesday

    Time Temperature Precipitation Wind Pressure Humidity
    00:00 +17°C° 0 mm 3 mps 710 mmHg 77%
    01:00 +16°C° 0 mm 3 mps 710 mmHg 77%
    02:00 +16°C° 0 mm 3 mps 710 mmHg 77%
    03:00 +14°C° 0 mm 3 mps 711 mmHg 77%
    04:00 +14°C° 0 mm 3 mps 711 mmHg 77%
    05:00 +14°C° 0 mm 3 mps 711 mmHg 77%
    06:00 +13°C° 0 mm 3 mps 712 mmHg 77%
    07:00 +13°C° 0 mm 3 mps 712 mmHg 76%
    08:00 +13°C° 0 mm 3 mps 713 mmHg 76%
    09:00 +16°C° 0 mm 3 mps 714 mmHg 68%
    10:00 +17°C° 0 mm 3 mps 714 mmHg 60%
    11:00 +19°C° 0 mm 4 mps 715 mmHg 52%
    12:00 +20°C° 0 mm 4 mps 714 mmHg 50%
    13:00 +20°C° 0 mm 5 mps 714 mmHg 48%
    14:00 +21°C° 0 mm 6 mps 714 mmHg 45%
    15:00 +20°C° 0 mm 5 mps 714 mmHg 49%
    16:00 +19°C° 0 mm 5 mps 714 mmHg 52%
    17:00 +17°C° 0 mm 5 mps 714 mmHg 55%
    18:00 +17°C° 0 mm 4 mps 715 mmHg 59%
    19:00 +15°C° 0 mm 4 mps 716 mmHg 63%
    20:00 +14°C° 0 mm 3 mps 717 mmHg 67%
    21:00 +13°C° 0 mm 3 mps 717 mmHg 68%
    22:00 +13°C° 0 mm 3 mps 717 mmHg 69%
    23:00 +12°C° 0 mm 3 mps 718 mmHg 71%

    28 June, Wednesday

    Time Temperature Precipitation Wind Pressure Humidity
    00:00 +13°C° 0 mm 2 mps 718 mmHg 72%
    01:00 +12°C° 0 mm 2 mps 717 mmHg 73%
    02:00 +12°C° 0 mm 2 mps 717 mmHg 74%
    03:00 +10°C° 0 mm 2 mps 717 mmHg 74%
    04:00 +10°C° 0 mm 2 mps 717 mmHg 74%
    05:00 +10°C° 0 mm 2 mps 717 mmHg 75%
    06:00 +10°C° 0 mm 2 mps 717 mmHg 74%
    07:00 +10°C° 0 mm 2 mps 717 mmHg 73%
    08:00 +9°C° 0 mm 2 mps 718 mmHg 72%
    09:00 +12°C° 0 mm 2 mps 718 mmHg 63%
    10:00 +14°C° 0 mm 2 mps 718 mmHg 54%
    11:00 +16°C° 0 mm 2 mps 718 mmHg 46%
    12:00 +17°C° 0 mm 2 mps 717 mmHg 43%
    13:00 +18°C° 0 mm 2 mps 716 mmHg 41%
    14:00 +19°C° 0 mm 2 mps 716 mmHg 38%
    15:00 +18°C° 0 mm 2 mps 716 mmHg 41%
    16:00 +17°C° 0 mm 2 mps 716 mmHg 43%
    17:00 +17°C° 0 mm 2 mps 716 mmHg 45%
    18:00 +16°C° 0 mm 2 mps 716 mmHg 51%
    19:00 +14°C° 0 mm 1 mps 717 mmHg 57%
    20:00 +13°C° 0 mm 1 mps 717 mmHg 62%
    21:00 +12°C° 0 mm 1 mps 718 mmHg 65%
    22:00 +12°C° 0 mm 1 mps 718 mmHg 67%
    23:00 +12°C° 0 mm 1 mps 718 mmHg 70%
    Show more